www.pogodaiklimat.ru

Погода и климат >> Архив погоды >> Россия >> Иркутская область >> Орлинга


АРХИВ ПОГОДЫ в Орлинге

Время (UTC), дата Ветер
(напр.,м/с)
 
Видим.   Явления Облачность Т
(С)
Тd
(С)
f
(%)
Тe
(С)
Тes
(С)
Комфортность P
(гПа)
Po
(гПа)
Тmin
(С)
Tmax
(С)
R
(мм)
R24
(мм)
S
(см)
00 15.07 С 1 20 км 10/5 600 м
[Cb cap Ac As]
+16.7 +13.7 82 +18 +18 1003.2 964.3 +14.3
06 15.07 СВ 1 20 км в посл. час ливневой дождь 10/10 600 м
[Cb cap]
+21.9 +16.3 71 +26 +26 душно 1002.0 963.9
12 15.07 С 1 20 км 10/8 600 м
[Cb cap Ac trans Ci fib]
+23.2 +18.6 75 +29 +29 душно 1002.5 964.6 +25.8 0.0
18 15.07 С 1 н/о 10/8 600 м
[Cb cap Ci fib]
+15.4 +14.5 94 +16 +16 1005.3 966.2
00 16.07 СВ 1 20 км 10/5 600 м
[Cb cap Ac trans Ci fib]
+18.1 +14.8 81 +19 +21 1006.3 967.5 +14.5
06 16.07 З 1 20 км 10/4 600 м
[Cb cap Ac trans Ci fib]
+25.4 +16.5 58 +29 +34 душно 1006.0 968.2
12 16.07 СВ 1 20 км 10/4 1000 м
[Sc Ac trans Cs]
+26.7 +17.3 56 +31 +31 душно 1005.7 968.1 +29.8
18 16.07 ЮВ 1 н/о 10/4 600 м
[Cb cap Ac As Cs]
+18.8 +16.8 88 +21 +21 комфорт 1006.8 968.1
00 17.07 ЮВ 1 10 км дым 10/5 600 м
[Cb cap Ac trans Cs]
+18.1 +16.9 93 +19 +21 1007.4 968.6 +16.9
06 17.07 З 1 10 км дым 9/3 1000 м
[Cu med, cong Ac trans Ci fib]
+26.8 +18.7 61 +32 +38 очень
душно
1002.7 965.1
12 17.07 Ю 1 10 км дым {гроза, ливн. осадки} 10/10 600 м
[Cb cap]
+24.5 +19.7 75 +30 +30 очень
душно
1002.0 964.3 +27.8 0.0
18 17.07 В 1 н/о 8/3 600 м
[Cb cap Ac cast Ci fib]
+17.9 +17.4 97 +19 +19 1004.9 966.2
00 18.07 ЮЗ 1 4000 м дымка 10/10 300 м
[St]
+17.5 +16.7 95 +19 +19 1005.4 966.7 +15.4
06 18.07 СЗ 3 20 км в посл. час гроза 10/6 600 м
[Cb cap Ci fib]
+29.5 +15.6 43 +32 +36 душно 1001.6 964.5
12 18.07 ЮЗ 2 20 км 10/8 600 м
[Cb cap Cs]
+23.0 +19.1 79 +29 +29 очень
душно
1003.8 965.9 +29.5
18 18.07 В 1 н/о зарница {ливн. осадки} 10/6 600 м
[Cb cap Ac As]
+18.6 +17.1 91 +21 +21 комфорт 1004.4 965.8
00 19.07 С 1 10 км ливневой дождь 10/10 600 м
[Cb cap]
+18.1 +16.6 91 +19 +19 1004.6 965.9 +18.0 1
06 19.07 З 1 10 км {ливн. осадки} 10/10 300 м
[Cb cap]
+15.7 +14.1 90 +16 +16 1005.2 966.1
12 19.07 ЮЗ 1 10 км {ливн. осадки} 10/10 300 м
[Cb cap]
+15.9 +15.0 94 +17 +17 1004.5 965.5 +18.1 14
18 19.07 З 1 н/о туман ?/? +15.1 +14.4 96 +16 +16 1003.4 964.3
00 20.07 З 1 500 м туман ?/? +12.1 +1.0 47 +12 +12 1004.3 964.7 +11.1
06 20.07 СЗ 2 4000 м мгла {туман} 10/3 600 м
[Cb cap Cs]
+21.9 +13.4 58 +25 +32 комфорт 1002.3 964.2
12 20.07 СЗ 1 4000 м мгла 10/0
[Cs]
+21.4 +11.1 52 +23 +24 комфорт 1003.8 965.5 +24.4
18 20.07 Ю 1 н/о мгла 10/0
[Cs]
+11.0 +9.0 87 +11 +11 1008.0 968.1
00 21.07 штиль 0 4000 м дымка 10/0
[Cs]
+11.5 +9.1 85 +11 +15 1008.4 968.6 +9.3
06 21.07 З 1 10 км дым 10/0
[Cs]
+24.6 +14.4 53 +27 +40 жарко 1004.4 966.5
12 21.07 З 1 20 км 10/3 1000 м
[Cu med, cong Ac trans Cs]
+24.1 +18.4 70 +29 +29 душно 1004.3 966.5 +27.6
18 21.07 В 1 н/о дымка 10/0
[Cs]
+14.1 +13.6 97 +14 +14 1007.1 967.7

 

Местоположение метеостанции Орлинга (Иркутская область, Россия): широта 56.05 долгота 105.80 высота над уровнем моря 338 м.

В архиве по умолчанию представлена погода в Орлинге за последнюю неделю. Архивные данные за месяц целиком и за предыдущие месяцы, начиная с января 2011 года, Вы можете получить, выбрав интересующий диапазон дат из раскрывающегося списка и нажав кнопку "Ввод!".


*Определитесь, кто Вы:
робот инопланетянин человек

Внимание! Время в таблицах - всемирное. Для получения местного времени необходимо прибавить поправку, которая равна 8 ч.

Смотрите также архив погоды в соседних городах и на ближайших метеорологических станциях:

Погода в Усть-Куте (Иркутская область, Россия) (83 км)
Погода в Казачинске (Иркутская область, Россия) (115 км)
Погода в Максимово (Иркутская область, Россия) (129 км)
Погода в Жигалове (Иркутская область, Россия) (146 км)
Погода в Караме (Иркутская область, Россия) (151 км)
Погода в Новой Игирме (Иркутская область, Россия) (166 км)
Погода в Заярске (Иркутская область, Россия) (187 км)
Погода в Даване (Бурятия, Россия) (190 км)
Погода в Тырке (Иркутская область, Россия) (190 км)
Погода в Качуге (Иркутская область, Россия) (231 км)

Пояснения к столбцам:

Ветер - указаны скорость ветра в м/с - средняя за 10 мин, порывы в срок и между сроками (в фигурных скобках) и направление, откуда дует ветер: С - северный, СВ - северо-восточный, В - восточный, ЮВ - юго-восточный, Ю - южный, ЮЗ - юго-западный, З - западный, СЗ - северо-западный.
Видимость - горизонтальная дальность видимости в метрах или километрах. При видимости от 1 до 10 км при отсутствии осадков обычно наблюдается дымка, при ухудшении видимости до 1 км и менее - туман. В сухую погоду видимость может ухудшаться дымом, пылью или мглою.
Явления - указаны атмосферные явления, наблюдавшиеся в срок или в последний час перед сроком; фигурными скобками обозначены явления, наблюдавшиеся между сроками (за 1-3 часа до срока); квадратными скобками обозначены град или гололедные отложения с указанием их диаметра в мм.
Облачность - указаны через наклонную черту общая и нижняя облачность в баллах и высота нижней границы облаков в метрах; квадратными скобками обозначены формы облаков: Ci - перистые, Cs - перисто-слоистые, Cc - перисто-кучевые, Ac - высококучевые, As - высокослоистые, Sc - слоисто-кучевые, Ns - слоисто-дождевые, Cu - кучевые, Cb - кучево-дождевые. Подробнее классификацию облаков см. в Атласе облаков (PDF).
T - Температура воздуха - температура, измеренная на высоте 2 м над землей.
Td - Температура точки росы - температура, при понижении до которой содержащийся в воздухе водяной пар достигнет насыщения.
f - Относительная влажность воздуха - влажноcть воздуха, измеренная на высоте 2 м над землей.
Te - Эффективная температура - температура, которую ощущает одетый по сезону человек в тени. Характеристика душности погоды. При расчете учитывается влияние влажности воздуха и скорости ветра на теплоощущения человека.
Tes - Эффективная температура на солнце - температура, которую ощущает человек, с поправкой на солнечный нагрев. Характеристика знойности погоды. Зависит от высоты солнца над горизонтом, облачности и скорости ветра. Ночью, в пасмурную погоду, а также при ветре 12 м/с и более поправка равна нулю.
P - Атмосферное давление - приведенное к уровню моря атмосферное давление.
Po - Атмосферное давление - измеренное на уровне метеостанции атмосферное давление.
Tmin - Минимальная температура - минимум температуры воздуха на высоте 2 м над землей.
Tmax - Максимальная температура - максимум температуры воздуха на высоте 2 м над землей.
R - Количество осадков - Количество выпавших осадков за период времени, мм. При наведении курсора мыши на число - период времени, за который выпало указанное количество осадков.
R24 - Количество осадков - Количество выпавших осадков за 24 часа, мм.
S - Снежный покров - Высота снежного покрова, см. При наведении курсора мыши на число - состояние снежного покрова и степень покрытия местности в баллах.